Weather Roundup
Issued by NWS Chicago, IL

Home | Current Version | Previous Version | Text Only | Print | Product List | Glossary Off
Versions: 1 2 3 4 5 6 7 8 9 10 11 12 13 14 15 16 17 18 19 20 21 22 23 24 25 26 27 28 29 30 31 32 33 34 35 36 37 38 39 40 41 42 43 44 45 46 47 48 49 50

000
NZUS59 KLOT 200108
HRRLOT

CHICAGO AREA WEATHER ROUNDUP
NATIONAL WEATHER SERVICE CHICAGO/ROMEOVILLE IL
700 PM CST SUN NOV 19 2017

NOTE: "FAIR" INDICATES FEW OR NO CLOUDS BELOW 12,000 FEET WITH NO
SIGNIFICANT WEATHER AND/OR OBSTRUCTIONS TO VISIBILITY.

* THESE STATIONS ARE NOT UNDER NWS QUALITY CONTROL. THEY ALSO MAY NOT
  REPORT WEATHER SUCH AS PRECIPITATION OR FOG.

ILZ005-006-012>014-019>023-200200-
NORTHEAST ILLINOIS

CITY           SKY/WX    TMP DP  RH WIND       PRES   REMARKS
OHARE          CLEAR     31  20  63 W8        30.06S WCI  23
MIDWAY         CLEAR     31  21  66 SW9       30.08R WCI  23
AURORA         CLEAR     28  21  75 SW7       30.08S WCI  21
LANSING*       CLEAR     30  23  75 W10       30.10R WCI  21
JOLIET*        CLEAR     31  23  72 SW3       30.10S
WAUKEGAN       CLEAR     30  19  63 VRB7      30.02F WCI  23
DUPAGE AIRPORT CLEAR     28  22  78 SW7       30.06S WCI  21
WHEELING       CLEAR     32  20  61 SW6       30.07S WCI  26
KANKAKEE*      CLEAR     29  23  78 W7        30.12S WCI  22
MORRIS*        CLEAR     28  22  77 SW7       30.10S WCI  21
LEWIS AIRPORT* CLEAR     30  22  73 W8        30.09S WCI  22
NORTHERLY ISL    N/A     33  19  56 W8          N/A  WCI  26
$$

WIZ051-052-058>065-066-070>072-200200-
SOUTHEAST WISCONSIN

CITY           SKY/WX    TMP DP  RH WIND       PRES   REMARKS
MILWAUKEE      CLEAR     31  19  61 W9        30.00F WCI  23
KENOSHA*       CLEAR     29  19  66 SW10      30.02F WCI  20
RACINE*        CLEAR     30  19  63 W8        30.02F WCI  22
BURLINGTON     CLEAR     29  25  83 SW6       30.02S WCI  23
WAUKESHA       CLEAR     27  16  63 W13       30.00F WCI  16
WEST BEND      PTCLDY    28  18  64 SW6       29.97F WCI  22
$$

INZ001>003-010>013-019-020-200200-
NORTHWEST INDIANA

CITY           SKY/WX    TMP DP  RH WIND       PRES   REMARKS
GARY*          PTCLDY    32  19  59 W14       30.09R WCI  22
MICHIGAN CITY* NOT AVBL
RENSSELAER*    NOT AVBL
VALPARAISO     CLEAR     31  20  63 W12       30.08R WCI  22
$$

LMZ740>746-200200-
SOUTHERN LAKE MICHIGAN

STATION/POSITION TIME  SKY/WX   TEMP WIND        PRES    VSBY
                                AIR  DIR/SP/G
                 (UTC)          (F)  (DEG/KT/KT) (MB)    (MI)
HARRISON CRIB    0040            34  260/ 13/ 15   N/A
BURNHAM HARBOR   0100            33  240/  6/ 11   N/A
CALUMET HARBOR   0048            32  220/  6/ 11 1017.9R
BURNS HARBOR     0040            35  260/ 18/ 23 1018.6R
MICHIGAN CITY    0040            35  250/ 24/ 27   N/A
$$

ABBREVIATIONS USED IN REMARKS
   TC - TEMPERATURE IN CELSIUS
  WCI - WIND CHILL INDEX
   HX - HEAT INDEX
  VSB - VISIBILITY
$$




USA.gov is the U.S. government's official web portal to all federal, state and local government web resources and services.